FACSAT-1 (43721 NORAD) Tracking and Keplerian Element Data

This shows tracking and keplerian element data for the satellite.

Feedback or suggestion? Click here.




ElementValue
Catalog43721
NameFACSAT-1
Epoch Orbit173
Epoch Day344.50785999
Epoch Year2018
RAAN49.5053
Inclination97.4841
Eccentricity0.0016783
Argument of Perigee280.7035
Mean Anonmoly79.2313
Mean Motion15.25729525
Decay Rate1.522E-05
L11 43721U 18096C 18344.50785999 .00001522 00000-0 62404-4 0 9993
L22 43721 97.4841 49.5053 0016783 280.7035 79.2313 15.25729525 1737

Live tracking and technical data element details for FACSAT-1 (NORAD 43721). FACSAT-1 can be tracked NOW for your location showing map with azimuth and elevation plus other details from your city location.

Track the satellite on the map from your city or location and see movement details for azimuth, elevation, latitude, longitude, range, height, and movement on the map or in text.







IsCatalogInMostPopularTable: catalog: 43721, numindb: 5
Update: records affected: 1



GetName: 43721 FACSAT-1

Hit Count: updated at: Tue, 11 Dec 2018 02:47:27 GMT